Location: Hylvaty SDH
(49.9612°N, 16.4057°E)
Time: 00:49:52
(UTC+01:00)

SR - All Passes

Search period start: 26 January 2020 00:00
Search period end: 05 February 2020 00:00
Orbit: 574 x 882 km, 66.7° (Epoch: 25 January)

Date Brightness Start Highest point End Pass type
(mag) Time Alt. Az. Time Alt. Az. Time Alt. Az.
26 Jan - 01:07:55 10° WNW 01:12:06 19° NNW 01:16:13 10° NNE night (unlit)
26 Jan - 02:53:12 10° NNW 02:56:31 15° N 02:59:46 10° NE visible
26 Jan - 04:35:52 10° NNW 04:40:40 26° NNE 04:45:12 10° E visible
26 Jan - 06:17:53 10° NW 06:23:36 87° NE 06:28:49 10° SE visible
26 Jan - 08:01:19 10° WNW 08:04:53 18° WSW 08:08:17 10° SW daylight
26 Jan - 20:52:15 10° SSE 20:56:59 26° ESE 21:01:47 10° NE night (unlit)
26 Jan - 22:32:45 10° SW 22:38:40 73° NW 22:44:36 10° NE night (unlit)
27 Jan - 00:16:59 10° W 00:21:46 24° NNW 00:26:31 10° NNE night (unlit)
27 Jan - 02:02:43 10° NW 02:06:00 15° N 02:09:13 10° NNE visible
27 Jan - 03:46:10 10° NNW 03:50:22 20° NNE 03:54:23 10° ENE visible
27 Jan - 05:28:12 10° NNW 05:33:47 54° NE 05:38:56 10° ESE visible
27 Jan - 07:10:47 10° NW 07:15:40 32° WSW 07:20:11 10° S daylight
27 Jan - 20:04:44 10° SE 20:07:48 15° ESE 20:10:53 10° ENE night (unlit)
27 Jan - 21:43:07 10° SSW 21:48:57 71° ESE 21:54:52 10° NE night (unlit)
27 Jan - 23:26:16 10° W 23:31:36 33° NW 23:36:54 10° NNE night (unlit)
28 Jan - 01:11:51 10° NW 01:15:30 16° NNW 01:19:05 10° NNE night (unlit)
28 Jan - 02:56:19 10° NNW 02:59:57 17° NNE 03:03:28 10° NE visible
28 Jan - 04:38:34 10° NNW 04:43:48 35° NE 04:48:41 10° ESE visible
28 Jan - 06:20:45 10° NW 06:26:15 57° WSW 06:31:16 10° SSE visible
28 Jan - 20:53:56 10° S 20:59:26 42° ESE 21:04:58 10° NE night (unlit)
28 Jan - 22:35:50 10° WSW 22:41:34 49° NW 22:47:17 10° NNE night (unlit)
29 Jan - 00:20:51 10° WNW 00:25:05 20° NNW 00:29:14 10° NNE night (unlit)
29 Jan - 02:06:12 10° NNW 02:09:29 15° N 02:12:40 10° NE visible
29 Jan - 03:48:55 10° NNW 03:53:38 25° NNE 03:58:06 10° E visible
29 Jan - 05:30:56 10° NW 05:36:38 84° NE 05:41:49 10° SE visible
29 Jan - 07:14:16 10° WNW 07:17:57 19° WSW 07:21:28 10° SSW daylight
29 Jan - 20:05:25 10° SSE 20:10:04 25° ESE 20:14:45 10° ENE night (unlit)
29 Jan - 21:45:46 10° SW 21:51:41 76° NW 21:57:38 10° NE night (unlit)
29 Jan - 23:29:55 10° W 23:34:46 25° NNW 23:39:32 10° NNE night (unlit)
30 Jan - 01:15:40 10° NW 01:18:57 15° N 01:22:11 10° NNE night (unlit)
30 Jan - 02:59:14 10° NNW 03:03:20 19° NNE 03:07:17 10° ENE visible
30 Jan - 04:41:15 10° NNW 04:46:48 52° NE 04:51:54 10° ESE visible
30 Jan - 06:23:47 10° NW 06:28:43 34° WSW 06:33:16 10° S visible
30 Jan - 19:18:04 10° SE 19:20:53 14° ESE 19:23:44 10° ENE night (unlit)
30 Jan - 20:56:09 10° SSW 21:02:00 68° ESE 21:07:54 10° NE night (unlit)
30 Jan - 22:39:13 10° WSW 22:44:36 34° NW 22:49:56 10° NNE night (unlit)
31 Jan - 00:24:48 10° NW 00:28:28 17° NNW 00:32:05 10° NNE night (unlit)
31 Jan - 02:09:22 10° NNW 02:12:55 16° NNE 02:16:22 10° NE visible
31 Jan - 03:51:37 10° NNW 03:56:48 34° NE 04:01:37 10° ESE visible
31 Jan - 05:33:47 10° NW 05:39:17 60° WSW 05:44:19 10° SSE visible
31 Jan - 20:07:02 10° S 20:12:29 40° ESE 20:17:58 10° NE night (unlit)
31 Jan - 21:48:49 10° WSW 21:54:35 51° NW 22:00:19 10° NNE night (unlit)
31 Jan - 23:33:47 10° WNW 23:38:03 20° NNW 23:42:15 10° NNE night (unlit)
01 Feb - 01:19:12 10° NNW 01:22:26 15° N 01:25:35 10° NE night (unlit)
01 Feb - 03:01:59 10° NNW 03:06:37 24° NNE 03:11:00 10° E visible
01 Feb - 04:43:59 10° NW 04:49:39 80° NE 04:54:48 10° SE visible
01 Feb - 06:27:13 10° WNW 06:31:01 20° WSW 06:34:38 10° SSW visible
01 Feb - 19:18:36 10° SSE 19:23:09 24° ESE 19:27:43 10° ENE visible
01 Feb - 20:58:48 10° SW 21:04:44 79° NW 21:10:40 10° NE visible
01 Feb - 22:42:52 10° W 22:47:45 26° NNW 22:52:35 10° NNE night (unlit)
02 Feb - 00:28:38 10° NW 00:31:55 15° N 00:35:07 10° NNE night (unlit)
02 Feb - 02:12:16 10° NNW 02:16:18 19° NNE 02:20:10 10° ENE visible
02 Feb - 03:54:18 10° NNW 03:59:49 49° NE 04:04:52 10° ESE visible
02 Feb - 05:36:48 10° NW 05:41:46 35° WSW 05:46:21 10° S visible
02 Feb - 18:31:25 10° SE 18:33:58 13° ESE 18:36:32 10° ENE visible
02 Feb - 20:09:14 10° SSW 20:15:03 65° ESE 20:20:55 10° NE visible
02 Feb - 21:52:11 10° WSW 21:57:36 35° NW 22:02:58 10° NNE night (unlit)
02 Feb - 23:37:44 10° NW 23:41:26 17° NNW 23:45:04 10° NNE night (unlit)
03 Feb - 01:22:24 10° NNW 01:25:53 16° NNE 01:29:15 10° NE night (unlit)
03 Feb - 03:04:41 10° NNW 03:09:47 33° NE 03:14:32 10° E visible
03 Feb - 04:46:49 10° NW 04:52:20 63° WSW 04:57:20 10° SSE visible
03 Feb - 06:32:11 10° W 06:33:11 10° W 06:34:10 10° WSW visible
03 Feb - 19:20:10 10° S 19:25:33 38° ESE 19:30:59 10° NE visible
03 Feb - 21:01:49 10° WSW 21:07:36 53° NW 21:13:21 10° NNE visible
03 Feb - 22:46:43 10° WNW 22:51:02 20° NNW 22:55:16 10° NNE night (unlit)
04 Feb - 00:32:12 10° NNW 00:35:23 15° N 00:38:29 10° NE night (unlit)
04 Feb - 02:15:03 10° NNW 02:19:36 24° NNE 02:23:54 10° E visible
04 Feb - 03:57:03 10° NW 04:02:40 77° NE 04:07:47 10° SE visible
04 Feb - 05:40:11 10° WNW 05:44:06 21° WSW 05:47:47 10° SSW visible
04 Feb - 18:31:48 10° SSE 18:36:14 22° ESE 18:40:41 10° ENE visible
04 Feb - 20:11:50 10° SW 20:17:46 82° NW 20:23:41 10° NE visible
04 Feb - 21:55:48 10° W 22:00:45 26° NNW 22:05:36 10° NNE visible
04 Feb - 23:41:35 10° NW 23:44:52 15° N 23:48:05 10° NNE night (unlit)
